When you browse on this site, cookies collect data to enhance your experience and personalize the content and advertising you see.
Visit our Privacy Policy to learn more. By continuing to use the site, you agree to this use of cookies and data.
  • en France
  • Liste des pays
  • À 7 jours
  • Température de l'eau
  • Carte satellitaire
  • Carte météo
  • Widgets météo
  • user-avatar
    Se connecter

    Météo par heure à Bukittinggi

    Ce jour, 22 Mai, Mercredi

    Heure Température Précipitation Vent Pression Humidité
    00:00 +20°C° 1.7 mm 0 m/s 682 mmHg 96%
    01:00 +19°C° 1.7 mm 0 m/s 682 mmHg 96%
    02:00 +19°C° 0.2 mm 0 m/s 682 mmHg 95%
    03:00 +19°C° 0.2 mm 0 m/s 681 mmHg 95%
    04:00 +19°C° 0.2 mm 0 m/s 681 mmHg 95%
    05:00 +19°C° 0.1 mm 0 m/s 681 mmHg 94%
    06:00 +19°C° 0.1 mm 0 m/s 681 mmHg 93%
    07:00 +20°C° 0.1 mm 0 m/s 682 mmHg 93%
    08:00 +22°C° 0.6 mm 0 m/s 682 mmHg 84%
    09:00 +24°C° 0.6 mm 0 m/s 683 mmHg 76%
    10:00 +28°C° 0.6 mm 1 m/s 684 mmHg 68%
    11:00 +28°C° 1.8 mm 1 m/s 683 mmHg 71%
    12:00 +28°C° 1.8 mm 1 m/s 683 mmHg 74%
    13:00 +28°C° 1.8 mm 1 m/s 683 mmHg 78%
    14:00 +27°C° 2.8 mm 1 m/s 682 mmHg 81%
    15:00 +26°C° 2.8 mm 1 m/s 681 mmHg 85%
    16:00 +26°C° 2.8 mm 1 m/s 681 mmHg 88%
    17:00 +25°C° 2.4 mm 1 m/s 681 mmHg 91%
    18:00 +22°C° 2.4 mm 0 m/s 681 mmHg 93%
    19:00 +21°C° 2.4 mm 0 m/s 681 mmHg 95%
    20:00 +20°C° 1.8 mm 0 m/s 681 mmHg 95%
    21:00 +20°C° 1.8 mm 0 m/s 682 mmHg 95%
    22:00 +20°C° 1.8 mm 0 m/s 682 mmHg 94%
    23:00 +20°C° 0.2 mm 0 m/s 682 mmHg 94%

    Demain, 23 Mai, Jeudi

    Heure Température Précipitation Vent Pression Humidité
    00:00 +20°C° 0.2 mm 0 m/s 682 mmHg 94%
    01:00 +20°C° 0.2 mm 0 m/s 682 mmHg 95%
    02:00 +19°C° 0.1 mm 0 m/s 682 mmHg 94%
    03:00 +19°C° 0.1 mm 0 m/s 681 mmHg 94%
    04:00 +19°C° 0.1 mm 0 m/s 681 mmHg 94%
    05:00 +19°C° 0.1 mm 0 m/s 681 mmHg 93%
    06:00 +19°C° 0.1 mm 0 m/s 682 mmHg 92%
    07:00 +19°C° 0.1 mm 0 m/s 682 mmHg 92%
    08:00 +21°C° 0.1 mm 0 m/s 683 mmHg 83%
    09:00 +23°C° 0.1 mm 0 m/s 683 mmHg 75%
    10:00 +25°C° 0.1 mm 0 m/s 684 mmHg 66%
    11:00 +26°C° 0.4 mm 0 m/s 684 mmHg 64%
    12:00 +27°C° 0.4 mm 0 m/s 684 mmHg 62%
    13:00 +30°C° 0.4 mm 1 m/s 683 mmHg 60%
    14:00 +26°C° 2.3 mm 0 m/s 682 mmHg 68%
    15:00 +25°C° 2.3 mm 0 m/s 682 mmHg 75%
    16:00 +24°C° 2.3 mm 0 m/s 681 mmHg 83%
    17:00 +23°C° 1.6 mm 0 m/s 681 mmHg 86%
    18:00 +22°C° 1.6 mm 0 m/s 681 mmHg 89%
    19:00 +20°C° 1.6 mm 0 m/s 681 mmHg 93%
    20:00 +20°C° 0.8 mm 0 m/s 682 mmHg 93%
    21:00 +20°C° 0.8 mm 0 m/s 682 mmHg 94%
    22:00 +20°C° 0.8 mm 0 m/s 683 mmHg 94%
    23:00 +19°C° 0.4 mm 0 m/s 683 mmHg 94%

    Après-demain, 24 Mai, Vendredi

    Heure Température Précipitation Vent Pression Humidité
    00:00 +19°C° 0.4 mm 0 m/s 682 mmHg 94%
    01:00 +19°C° 0.4 mm 0 m/s 682 mmHg 94%
    02:00 +19°C° 0 mm 0 m/s 682 mmHg 94%
    03:00 +19°C° 0 mm 0 m/s 681 mmHg 93%
    04:00 +19°C° 0 mm 0 m/s 681 mmHg 93%
    05:00 +19°C° 0 mm 0 m/s 681 mmHg 92%
    06:00 +19°C° 0 mm 0 m/s 681 mmHg 91%
    07:00 +19°C° 0 mm 0 m/s 682 mmHg 90%
    08:00 +22°C° 0 mm 0 m/s 683 mmHg 80%
    09:00 +24°C° 0 mm 0 m/s 683 mmHg 70%
    10:00 +29°C° 0 mm 1 m/s 684 mmHg 60%
    11:00 +29°C° 0.1 mm 1 m/s 684 mmHg 59%
    12:00 +29°C° 0.1 mm 1 m/s 684 mmHg 59%
    13:00 +30°C° 0.1 mm 1 m/s 683 mmHg 58%
    14:00 +29°C° 1.1 mm 1 m/s 682 mmHg 64%
    15:00 +28°C° 1.1 mm 1 m/s 682 mmHg 70%
    16:00 +25°C° 1.1 mm 0 m/s 681 mmHg 76%
    17:00 +23°C° 0.7 mm 0 m/s 681 mmHg 81%
    18:00 +22°C° 0.7 mm 0 m/s 681 mmHg 86%
    19:00 +20°C° 0.7 mm 0 m/s 681 mmHg 92%
    20:00 +20°C° 0.1 mm 0 m/s 681 mmHg 92%
    21:00 +20°C° 0.1 mm 0 m/s 682 mmHg 93%
    22:00 +19°C° 0.1 mm 0 m/s 682 mmHg 94%
    23:00 +19°C° 0 mm 0 m/s 682 mmHg 93%

    25 Mai, Samedi

    Heure Température Précipitation Vent Pression Humidité
    00:00 +19°C° 0 mm 0 m/s 682 mmHg 93%
    01:00 +19°C° 0 mm 0 m/s 682 mmHg 92%
    02:00 +19°C° 0 mm 0 m/s 681 mmHg 92%
    03:00 +19°C° 0 mm 0 m/s 681 mmHg 92%
    04:00 +18°C° 0 mm 0 m/s 681 mmHg 92%
    05:00 +19°C° 0 mm 0 m/s 681 mmHg 91%
    06:00 +19°C° 0 mm 0 m/s 681 mmHg 91%
    07:00 +19°C° 0 mm 0 m/s 682 mmHg 90%
    08:00 +22°C° 0 mm 0 m/s 683 mmHg 79%
    09:00 +24°C° 0 mm 0 m/s 683 mmHg 69%
    10:00 +29°C° 0 mm 1 m/s 684 mmHg 58%
    11:00 +29°C° 0.2 mm 1 m/s 684 mmHg 59%
    12:00 +29°C° 0.2 mm 1 m/s 683 mmHg 60%
    13:00 +30°C° 0.2 mm 1 m/s 682 mmHg 62%
    14:00 +29°C° 1.1 mm 1 m/s 682 mmHg 68%
    15:00 +28°C° 1.1 mm 1 m/s 681 mmHg 74%
    16:00 +27°C° 1.1 mm 1 m/s 680 mmHg 80%
    17:00 +25°C° 2.1 mm 1 m/s 680 mmHg 85%
    18:00 +24°C° 2.1 mm 1 m/s 680 mmHg 90%
    19:00 +20°C° 2.1 mm 0 m/s 681 mmHg 95%
    20:00 +20°C° 1 mm 0 m/s 681 mmHg 95%
    21:00 +20°C° 1 mm 0 m/s 681 mmHg 95%
    22:00 +19°C° 1 mm 0 m/s 682 mmHg 95%
    23:00 +19°C° 0.3 mm 0 m/s 682 mmHg 95%

    26 Mai, Dimanche

    Heure Température Précipitation Vent Pression Humidité
    00:00 +19°C° 0.3 mm 0 m/s 681 mmHg 95%
    01:00 +19°C° 0.3 mm 0 m/s 681 mmHg 96%
    02:00 +19°C° 0.3 mm 0 m/s 681 mmHg 95%
    03:00 +19°C° 0.3 mm 0 m/s 680 mmHg 95%
    04:00 +18°C° 0.3 mm 0 m/s 680 mmHg 95%
    05:00 +19°C° 0 mm 0 m/s 681 mmHg 95%
    06:00 +19°C° 0 mm 0 m/s 681 mmHg 94%
    07:00 +19°C° 0 mm 0 m/s 682 mmHg 94%
    08:00 +21°C° 0 mm 0 m/s 682 mmHg 85%
    09:00 +24°C° 0 mm 0 m/s 683 mmHg 76%
    10:00 +26°C° 0 mm 0 m/s 683 mmHg 67%
    11:00 +28°C° 0 mm 1 m/s 683 mmHg 63%
    12:00 +29°C° 0 mm 1 m/s 682 mmHg 59%
    13:00 +30°C° 0 mm 1 m/s 682 mmHg 56%
    14:00 +29°C° 0.2 mm 1 m/s 681 mmHg 60%
    15:00 +29°C° 0.2 mm 1 m/s 681 mmHg 64%
    16:00 +28°C° 0.2 mm 1 m/s 680 mmHg 68%
    17:00 +26°C° 0.5 mm 1 m/s 680 mmHg 77%
    18:00 +24°C° 0.5 mm 1 m/s 680 mmHg 86%
    19:00 +22°C° 0.5 mm 1 m/s 680 mmHg 95%
    20:00 +20°C° 0 mm 0 m/s 681 mmHg 95%
    21:00 +20°C° 0 mm 0 m/s 681 mmHg 96%
    22:00 +20°C° 0 mm 0 m/s 682 mmHg 96%
    23:00 +20°C° 0.1 mm 0 m/s 681 mmHg 95%

    27 Mai, Lundi

    Heure Température Précipitation Vent Pression Humidité
    00:00 +19°C° 0.1 mm 0 m/s 681 mmHg 94%
    01:00 +19°C° 0.1 mm 0 m/s 681 mmHg 93%
    02:00 +19°C° 0 mm 0 m/s 680 mmHg 92%
    03:00 +19°C° 0 mm 0 m/s 680 mmHg 90%
    04:00 +19°C° 0 mm 0 m/s 680 mmHg 89%
    05:00 +19°C° 0 mm 0 m/s 680 mmHg 88%
    06:00 +19°C° 0 mm 0 m/s 680 mmHg 87%
    07:00 +19°C° 0 mm 0 m/s 681 mmHg 86%
    08:00 +22°C° 0 mm 0 m/s 681 mmHg 75%
    09:00 +24°C° 0 mm 0 m/s 682 mmHg 64%
    10:00 +27°C° 0 mm 0 m/s 683 mmHg 53%
    11:00 +30°C° 0 mm 1 m/s 682 mmHg 51%
    12:00 +31°C° 0 mm 1 m/s 682 mmHg 48%
    13:00 +32°C° 0 mm 1 m/s 682 mmHg 46%
    14:00 +31°C° 0.1 mm 1 m/s 681 mmHg 54%
    15:00 +29°C° 0.1 mm 1 m/s 680 mmHg 62%
    16:00 +28°C° 0.1 mm 1 m/s 680 mmHg 70%
    17:00 +26°C° 0.3 mm 1 m/s 680 mmHg 78%
    18:00 +24°C° 0.3 mm 1 m/s 680 mmHg 87%
    19:00 +21°C° 0.3 mm 0 m/s 680 mmHg 95%
    20:00 +21°C° 0 mm 0 m/s 681 mmHg 95%
    21:00 +21°C° 0 mm 0 m/s 681 mmHg 96%
    22:00 +20°C° 0 mm 0 m/s 681 mmHg 97%
    23:00 +20°C° 0 mm 0 m/s 681 mmHg 97%
    Voir plus